C/2022 U2 ( ATLAS )

Japanese version
Home page
Updated on November 20, 2022

---------------------------------------------------------------------

* Profile

Discovery Date October 25, 2022
Magnitude 19.1 mag
Discoverer Asteroid Terrestrial-Impact Last Alert System (ATLAS) search program

* Pictures

* Orbital Elements

Epoch 2022 Aug. 9.0 TT = JDT 2459800.5
T 2023 Jan. 14.15873 TT                                 Rudenko
q   1.3258266            (2000.0)            P               Q
z  +0.0099276      Peri.  148.06445     -0.18791653     -0.76531909
 +/-0.0001150      Node   304.35378     +0.66837994     +0.35962370
e   0.9868377      Incl.   48.21737     +0.71969134     -0.53381409
>From 171 observations 2022 Oct. 25-Nov. 9, mean residual 0".5.

* Finding Charts

* Magnitudes Graph

        m1 = 13.0 + 5 log d + 10.0 log r

---------------------------------------------------------------------

The orbital elements are published on M.P.E.C. 2022-V125.
The charts are made with StellaNavigator Ver.10 (AstroArts).
The magnitudes graphs are made with Comet for Windows.

---------------------------------------------------------------------

Copyright(C) Seiichi Yoshida (comet@aerith.net). All rights reserved.